Temp
51 51 52 51 51 51 51 51 50 50 49 49 49 48 45 44 40 38 38 41 42 47 51 48 52 55 55 54 55 56 56 57 58 57 57 57 57 58 57 56 56 57 57 57 56 55 56 56 57 61 61 62 62 62 61 61 60 60 62 64 65 64 61 60 60 64 66 69 67 64 63 63 63 63
52 52 52 51 50 50 50 49 50 49 48 47 47 47 47 46 41 40 38 39 45 45 49 50 49 53 53 54 54 55 55 57 57 56 56 56 56 56 56 56 55 55 56 55 54 53 53 55 58 61 61 61 62 61 60 59 60 60 62 65 66 63 62 60 61 63 65 66 65 63 62 62 62 63
52 51 50 50 49 49 49 48 48 48 48 47 47 46 47 46 44 42 41 38 44 47 45 48 51 51 52 53 53 53 54 56 56 55 55 56 57 57 57 56 56 55 56 55 55 57 56 54 53 55 59 61 61 62 62 61 60 63 64 62 62 63 62 60 60 64 65 66 65 64 62 63 62 63
51 50 49 49 48 48 47 47 46 46 47 47 46 46 46 46 46 44 43 40 41 47 47 48 49 52 51 52 51 52 53 55 56 54 54 55 56 55 56 56 56 55 55 54 54 55 55 53 54 55 57 58 60 61 61 62 63 62 60 59 59 61 60 60 59 64 65 65 65 64 62 63 63 63
51 50 49 48 48 47 46 46 47 46 47 47 46 47 47 46 46 45 43 41 41 45 49 48 48 50 51 50 52 51 52 52 53 55 54 54 54 54 54 55 55 55 54 53 52 52 52 53 56 57 57 58 59 59 59 60 59 59 58 57 56 57 59 60 58 61 65 64 64 63 62 62 62 62
50 49 48 47 47 46 46 46 46 46 46 47 47 46 46 45 45 46 44 42 42 42 47 47 50 50 51 48 52 50 50 50 52 52 53 54 54 53 54 54 55 54 54 52 52 52 52 52 53 52 51 52 53 54 55 54 55 57 56 54 54 58 60 61 59 58 61 62 62 62 61 61 61 61
49 47 47 46 46 48 45 45 45 46 46 46 46 45 46 44 45 45 45 43 42 43 44 47 47 48 49 48 49 51 51 52 52 51 51 52 53 54 54 54 54 54 53 52 52 52 52 52 52 51 52 51 50 51 53 53 53 54 54 53 54 56 57 57 57 56 59 62 62 61 60 60 61 63
48 46 45 45 45 45 45 45 45 45 45 45 45 44 44 44 44 45 45 45 44 44 42 45 46 48 48 49 51 51 52 51 50 51 51 52 52 53 54 54 53 54 53 52 52 52 52 51 51 51 51 51 50 50 50 51 52 52 53 53 53 53 54 54 54 54 56 60 61 61 60 60 63 64
47 46 45 46 46 45 44 44 44 44 43 44 44 43 43 43 44 44 44 44 45 44 43 44 46 48 48 49 49 50 49 49 50 50 50 51 52 52 52 53 54 53 53 52 52 52 51 51 51 51 51 52 51 49 49 50 52 52 52 53 52 52 52 53 53 53 54 55 57 62 61 59 63 65
47 46 46 47 46 45 43 43 43 43 43 44 43 43 43 43 43 42 43 44 44 44 44 44 44 46 45 46 48 50 50 48 47 48 50 51 51 50 49 50 52 52 52 51 51 51 51 51 51 52 52 51 51 50 49 49 51 51 52 52 52 52 52 52 52 52 52 54 54 57 60 59 61 64
47 47 47 47 46 44 43 43 43 43 43 44 42 43 42 43 42 42 42 43 43 43 43 44 44 44 46 46 45 49 50 49 48 46 45 45 48 49 48 47 50 51 50 51 50 50 50 51 52 51 50 51 52 51 49 49 50 51 51 51 51 52 52 52 52 52 52 53 53 54 55 57 59 63
47 48 48 46 45 44 44 44 44 44 43 43 42 43 43 42 42 41 41 41 42 42 42 42 42 43 43 45 47 48 48 46 46 47 45 42 44 45 48 48 47 49 49 48 49 50 50 50 51 50 50 51 52 52 51 50 51 51 51 50 50 51 51 51 52 52 52 52 52 52 53 53 54 60
48 48 47 47 47 51 51 50 48 48 47 44 42 42 42 42 42 41 41 41 41 41 41 41 43 42 42 43 43 43 43 42 42 45 46 44 45 45 45 46 49 49 48 48 48 48 48 48 48 48 48 49 51 52 53 53 52 51 51 50 50 50 51 51 51 52 52 52 52 52 52 52 52 54
47 46 46 50 55 52 50 49 46 46 46 47 45 44 43 42 41 41 41 41 41 41 41 41 41 40 40 42 44 43 45 46 46 45 44 42 43 44 43 44 46 49 48 46 45 47 49 48 47 48 47 49 51 51 53 54 53 52 49 49 50 50 50 51 51 52 52 51 52 52 52 52 52 52
46 45 46 45 50 50 49 46 46 45 44 44 44 44 45 46 44 42 42 42 42 41 41 42 41 41 40 43 45 45 45 45 44 44 44 42 42 40 38 37 43 48 48 46 44 45 48 48 46 47 47 48 49 50 51 51 51 50 49 49 49 49 49 50 50 51 51 51 51 51 51 52 52 51
45 45 45 45 47 47 46 45 44 45 45 44 44 43 44 44 44 44 44 43 42 42 42 41 42 41 42 43 45 45 45 44 44 44 43 42 41 40 39 39 38 45 48 45 43 43 47 48 46 46 47 48 49 50 50 49 49 50 49 49 48 49 49 49 50 50 50 50 51 51 51 51 51 50
45 46 46 44 46 46 52 49 43 42 42 45 44 44 45 45 45 43 43 44 45 45 42 42 42 43 44 43 45 47 46 46 43 43 42 42 41 41 39 40 41 44 47 44 41 40 44 45 45 44 46 47 48 49 49 49 49 49 49 49 48 48 48 48 49 49 50 50 50 50 50 50 50 50
44 46 44 43 44 42 43 43 43 43 41 41 42 42 43 44 45 45 45 44 44 45 45 44 42 45 46 45 46 48 48 45 43 42 41 42 40 40 39 42 42 45 46 42 40 39 42 45 44 43 46 48 48 48 48 48 48 48 49 49 48 48 47 48 48 49 49 49 50 50 50 50 50 50
46 45 45 43 43 43 42 46 46 43 41 41 42 42 42 43 44 44 45 46 46 47 47 46 45 46 48 48 49 48 48 47 46 45 43 42 41 41 43 43 44 44 46 45 41 35 41 45 43 43 45 46 46 48 47 48 48 48 48 48 48 48 47 47 48 48 49 49 49 49 49 49 49 49
45 44 43 43 44 42 43 47 44 43 42 42 42 42 42 42 43 44 47 46 46 46 46 46 46 47 48 46 46 46 46 46 46 46 45 42 41 39 37 37 40 40 45 46 42 39 40 45 42 43 46 46 45 47 48 48 49 49 49 49 49 48 47 47 47 48 48 49 49 49 49 48 48 48
46 45 44 45 43 43 44 46 42 42 43 42 42 41 40 41 42 43 46 47 46 45 44 44 44 43 43 43 44 44 44 45 45 43 39 38 39 36 34 36 37 38 42 44 44 41 39 43 43 43 45 45 44 45 47 48 48 48 49 49 49 48 47 47 47 48 48 48 48 48 48 48 48 48
44 45 54 51 44 45 46 44 41 42 43 41 40 40 39 40 41 43 46 46 46 46 45 45 45 45 45 45 45 45 44 43 44 41 37 38 38 36 35 33 35 37 40 42 45 40 39 43 44 42 44 44 45 45 47 47 48 49 49 49 49 48 47 47 47 47 48 48 48 48 48 48 48 50
44 44 47 50 48 47 45 42 42 41 42 41 40 39 38 39 40 43 44 44 43 44 45 47 48 47 48 49 48 46 44 43 44 43 40 40 37 35 35 35 34 33 36 42 45 38 39 41 43 43 41 38 43 45 47 47 48 48 49 51 51 48 47 47 47 47 48 48 47 48 48 47 48 51
43 43 43 45 44 42 42 42 41 41 41 40 40 39 38 39 41 44 43 45 45 44 45 46 46 47 48 47 46 45 44 44 45 43 42 40 38 36 35 35 34 32 35 41 45 40 41 43 41 45 42 38 36 41 45 47 50 51 51 51 52 49 47 47 47 46 47 47 47 47 47 47 48 52
40 40 41 42 45 43 42 41 40 40 40 41 41 40 41 42 42 42 44 45 46 45 45 45 45 46 46 45 44 43 42 42 42 42 41 40 39 37 35 34 34 34 37 41 43 41 39 42 41 43 43 43 43 41 43 45 48 49 52 53 52 52 49 49 48 49 47 47 47 47 47 47 47 51
40 40 40 42 44 42 41 40 40 40 40 40 43 43 41 41 41 44 45 44 44 45 44 44 44 44 43 42 41 41 41 41 42 41 40 40 39 39 38 36 34 33 35 42 41 41 39 39 42 41 42 41 41 42 40 43 47 50 53 53 53 52 50 49 49 50 50 49 49 47 48 46 47 48
40 40 41 43 44 41 40 40 40 40 40 43 44 41 41 41 42 44 45 44 44 43 43 42 41 42 42 41 40 40 40 41 41 40 40 40 40 39 39 40 40 40 41 42 43 42 41 40 44 43 42 43 41 42 42 42 44 49 51 52 53 53 51 50 49 50 50 50 50 47 47 46 46 46
39 41 41 42 40 40 40 40 40 40 42 43 41 41 41 42 44 44 43 43 42 42 41 41 40 41 42 42 40 40 41 41 41 40 40 40 40 39 39 40 42 43 42 41 42 42 43 42 43 45 44 43 41 40 40 44 45 46 48 51 51 51 51 51 50 50 50 50 50 49 49 48 47 47
40 40 40 40 40 40 40 40 40 42 43 43 41 41 42 46 43 42 42 42 41 40 39 39 40 41 42 42 41 42 42 42 41 40 40 40 39 40 40 40 41 41 43 43 42 43 44 44 44 45 45 45 42 43 43 43 45 46 48 48 48 49 49 50 51 50 49 50 49 49 48 49 48 47
40 40 39 40 40 41 42 41 41 43 44 42 42 42 44 42 42 41 41 41 40 38 39 39 39 40 43 44 42 42 42 40 39 39 38 37 36 37 38 38 38 40 41 42 43 43 44 45 45 44 44 44 45 44 46 46 46 48 48 49 48 46 47 49 49 49 48 48 48 48 49 50 49 47
39 39 40 40 39 41 41 41 42 42 43 42 42 41 41 42 41 41 41 40 39 39 39 39 40 41 43 45 42 40 40 39 40 40 38 36 36 36 36 36 36 36 39 40 42 42 44 44 43 43 41 41 42 42 43 44 45 47 46 46 47 45 45 48 48 48 48 47 47 46 47 47 47 47
38 38 39 40 41 40 40 40 40 41 41 40 39 40 41 42 40 43 43 43 41 40 40 40 41 41 42 42 41 40 40 39 39 40 38 37 35 36 35 35 34 34 36 37 39 41 40 40 40 39 38 37 36 38 42 42 41 42 43 44 44 45 46 45 46 46 47 46 45 45 45 46 46 46
37 37 37 38 38 36 38 37 38 39 39 38 40 40 41 41 40 39 40 38 38 39 39 38 38 39 40 41 42 40 39 39 39 40 38 38 36 36 36 34 34 34 33 34 35 37 40 40 40 39 38 37 37 36 36 37 40 41 41 42 43 43 44 44 45 45 46 45 44 44 43 44 46 46
33 34 32 33 33 36 35 35 35 36 35 35 36 38 39 39 38 38 39 39 39 38 37 38 38 38 38 39 41 40 38 38 39 39 38 37 37 35 34 34 34 34 34 34 34 35 37 39 40 40 40 39 38 37 36 34 36 39 39 40 41 40 41 43 43 44 44 43 43 41 40 41 42 43
31 31 32 33 33 33 35 34 34 34 34 33 33 36 36 38 36 36 38 38 37 37 36 36 37 37 38 38 39 38 38 38 39 39 38 38 37 35 35 34 34 34 34 34 34 35 35 36 37 37 37 37 37 37 40 37 34 36 38 38 39 38 39 40 41 41 42 41 41 38 38 39 39 41
32 32 32 33 35 35 35 36 34 34 34 33 34 34 34 36 35 35 37 37 38 37 36 36 37 37 37 38 38 39 38 39 38 38 38 37 36 35 35 34 34 34 34 34 34 35 35 34 35 34 32 32 32 31 32 39 38 35 35 35 37 37 38 38 39 39 39 38 39 38 36 35 37 39
33 33 34 34 37 36 35 35 35 36 35 34 34 34 33 34 35 39 38 36 37 36 36 36 36 37 37 37 38 38 38 38 38 38 38 37 37 36 35 35 35 34 34 35 35 35 35 34 34 33 31 31 29 28 30 34 36 38 36 35 35 36 36 36 36 35 36 37 36 36 35 34 34 36
33 33 35 35 37 38 35 35 35 35 35 34 34 34 36 34 35 38 38 37 36 35 35 35 36 36 37 37 37 37 38 38 38 38 38 37 37 36 36 35 34 34 34 35 36 35 35 34 33 33 32 29 28 28 28 33 33 34 37 36 35 35 35 35 34 33 33 35 34 35 35 33 33 35
34 38 38 36 38 37 37 36 36 36 38 35 34 36 36 34 34 35 35 35 35 35 35 35 36 36 36 37 37 37 37 38 37 37 37 37 37 36 36 36 35 35 34 34 35 35 35 34 34 33 32 31 29 30 31 30 30 33 36 38 36 35 35 35 34 35 35 34 35 35 35 36 37 38
38 40 39 39 39 38 38 36 36 36 36 36 35 35 34 33 34 34 33 34 34 34 34 34 35 36 36 37 36 37 38 38 37 37 36 36 37 36 37 37 36 36 35 34 34 34 34 34 34 34 34 33 33 34 36 36 36 36 35 36 38 36 34 35 34 34 34 35 36 35 34 36 34 35
37 39 39 39 40 39 39 37 37 36 37 37 38 38 34 33 34 33 33 34 33 33 34 34 34 34 35 36 36 36 36 37 37 37 36 36 36 36 36 36 37 37 36 34 34 34 34 35 36 36 37 37 38 39 37 34 31 32 33 34 36 37 37 37 35 34 34 35 35 35 34 33 33 34
39 38 37 39 42 41 40 40 37 36 36 36 37 35 34 32 33 37 34 34 33 33 33 34 34 34 35 36 36 36 36 36 36 37 36 35 35 36 36 36 36 36 36 35 34 35 36 38 37 38 38 37 37 34 31 32 31 32 33 34 34 36 37 37 37 37 36 35 35 35 34 34 34 31
38 38 39 38 38 40 40 39 38 37 36 36 36 38 33 31 31 33 32 33 32 33 32 33 33 33 34 35 36 35 35 35 36 36 36 36 35 34 35 35 35 35 35 36 37 37 38 39 38 37 37 36 35 35 31 32 32 33 33 33 33 35 36 37 37 36 36 37 36 34 34 33 33 29
38 38 37 37 38 39 38 37 38 36 36 37 35 35 33 33 33 32 32 32 32 32 32 32 33 33 33 33 35 36 36 35 35 35 36 36 35 34 33 34 35 35 35 36 37 37 38 38 38 37 36 35 35 34 33 33 32 33 32 33 34 34 34 35 36 36 36 35 35 36 36 35 34 35
36 37 38 37 36 37 37 36 37 36 36 35 35 35 34 32 33 32 32 31 32 32 32 32 32 33 33 33 33 34 35 36 36 35 35 36 35 34 34 33 34 34 34 34 36 36 37 37 37 38 37 36 36 35 34 34 33 33 33 33 32 33 33 34 33 33 32 32 34 35 35 35 34 34
MSLP
1024.44 1024.48 1024.48 1024.64 1024.76 1024.80 1024.76 1024.72 1024.76 1024.76 1024.72 1024.68 1024.60 1024.52 1024.64 1024.68 1024.88 1024.48 1023.84 1022.68 1022.40 1021.44 1021.52 1021.12 1020.12 1020.36 1020.16 1019.68 1019.24 1018.80 1018.44 1018.08 1017.60 1017.12 1016.76 1016.36 1015.80 1015.24 1014.80 1014.32 1013.92 1013.52 1013.20 1012.88 1012.64 1012.36 1012.12 1011.96 1011.92 1012.00 1011.92 1011.60 1011.64 1011.88 1012.20 1012.48 1012.72 1013.00 1013.28 1013.60 1013.96 1014.20 1014.48 1014.76 1015.04 1015.24 1015.40 1015.52 1015.84 1016.28 1016.72 1017.08 1017.40 1017.68
1024.60 1024.72 1024.80 1024.88 1025.08 1025.12 1025.00 1025.04 1025.00 1024.96 1024.92 1024.84 1024.72 1024.68 1024.60 1024.56 1024.84 1024.84 1024.88 1023.80 1022.68 1022.24 1021.60 1021.56 1021.00 1020.36 1020.28 1019.96 1019.44 1019.12 1018.68 1018.28 1017.80 1017.36 1016.92 1016.52 1016.00 1015.44 1014.92 1014.44 1014.00 1013.68 1013.32 1012.96 1012.60 1012.36 1012.20 1011.96 1011.80 1011.76 1011.56 1011.36 1011.24 1011.40 1011.72 1012.04 1012.32 1012.56 1012.88 1013.16 1013.44 1013.80 1014.12 1014.44 1014.68 1014.88 1015.08 1015.24 1015.64 1015.96 1016.40 1016.80 1017.08 1017.40
1024.80 1025.04 1025.20 1025.20 1025.32 1025.28 1025.28 1025.20 1025.12 1025.00 1024.92 1024.84 1024.76 1024.68 1024.60 1024.56 1024.56 1024.68 1024.60 1024.52 1022.84 1022.88 1022.40 1021.56 1021.32 1021.00 1020.48 1020.08 1019.68 1019.20 1018.80 1018.24 1017.88 1017.48 1017.00 1016.52 1016.04 1015.56 1015.04 1014.68 1014.24 1013.80 1013.36 1012.92 1012.72 1012.56 1012.32 1012.08 1011.80 1011.60 1011.28 1011.12 1011.24 1011.16 1011.24 1011.52 1011.88 1012.20 1012.40 1012.76 1013.04 1013.32 1013.68 1014.00 1014.20 1014.52 1014.72 1014.96 1015.32 1015.72 1016.04 1016.40 1016.76 1017.12
1025.08 1025.28 1025.40 1025.44 1025.44 1025.40 1025.32 1025.20 1025.08 1025.00 1024.88 1024.80 1024.76 1024.64 1024.60 1024.56 1024.48 1024.48 1024.44 1024.48 1023.80 1023.04 1022.88 1022.28 1021.56 1021.04 1020.52 1020.12 1019.72 1019.24 1018.76 1018.32 1017.88 1017.44 1017.04 1016.52 1016.04 1015.60 1015.12 1014.68 1014.32 1013.88 1013.48 1013.24 1013.00 1012.72 1012.44 1012.08 1011.76 1011.56 1011.20 1010.96 1010.92 1010.76 1010.80 1011.04 1011.28 1011.64 1012.08 1012.36 1012.60 1012.80 1013.08 1013.48 1013.92 1014.20 1014.36 1014.68 1014.96 1015.36 1015.76 1016.08 1016.40 1016.76
1025.32 1025.48 1025.52 1025.52 1025.48 1025.40 1025.28 1025.20 1025.12 1025.00 1024.92 1024.84 1024.80 1024.72 1024.64 1024.60 1024.48 1024.40 1024.40 1024.36 1023.88 1023.16 1022.80 1022.48 1021.84 1021.16 1020.64 1019.92 1019.68 1019.28 1018.80 1018.24 1017.76 1017.36 1016.96 1016.52 1016.04 1015.60 1015.16 1014.64 1014.20 1013.88 1013.56 1013.32 1013.12 1012.88 1012.52 1012.12 1011.76 1011.52 1011.28 1010.92 1010.60 1010.56 1010.60 1010.60 1010.80 1011.08 1011.48 1011.80 1012.20 1012.40 1012.56 1012.92 1013.36 1013.80 1014.04 1014.32 1014.60 1014.96 1015.32 1015.72 1016.04 1016.40
1025.56 1025.60 1025.64 1025.60 1025.52 1025.36 1025.28 1025.24 1025.16 1025.16 1025.12 1025.00 1024.88 1024.84 1024.76 1024.76 1024.64 1024.48 1024.44 1024.32 1023.96 1023.36 1022.60 1022.20 1021.76 1021.24 1020.92 1020.32 1019.60 1019.32 1018.84 1018.28 1017.80 1017.36 1016.84 1016.44 1016.12 1015.56 1015.04 1014.64 1014.16 1013.80 1013.60 1013.36 1013.04 1012.80 1012.52 1012.12 1011.72 1011.44 1011.28 1011.08 1010.72 1010.40 1010.40 1010.36 1010.40 1010.64 1010.88 1011.08 1011.64 1012.12 1012.08 1012.52 1013.08 1013.40 1013.72 1014.04 1014.32 1014.60 1014.96 1015.28 1015.72 1016.04
1025.68 1025.68 1025.64 1025.60 1025.48 1025.32 1025.32 1025.40 1025.48 1025.44 1025.36 1025.28 1025.20 1025.16 1025.00 1024.96 1024.76 1024.52 1024.40 1024.24 1023.88 1023.32 1022.76 1022.28 1021.80 1021.28 1020.76 1020.48 1019.68 1019.16 1018.84 1018.52 1018.04 1017.44 1016.88 1016.36 1015.84 1015.48 1015.04 1014.56 1014.12 1013.76 1013.40 1013.12 1012.92 1012.68 1012.40 1012.08 1011.72 1011.36 1011.04 1010.92 1010.72 1010.44 1010.24 1010.12 1010.00 1010.12 1010.44 1010.64 1011.04 1011.40 1011.60 1011.92 1012.24 1012.64 1013.16 1013.64 1014.00 1014.32 1014.60 1014.92 1015.32 1015.64
1025.72 1025.72 1025.60 1025.48 1025.32 1025.36 1025.56 1025.72 1025.68 1025.60 1025.56 1025.52 1025.44 1025.36 1025.20 1025.00 1024.80 1024.56 1024.32 1024.08 1023.80 1023.32 1022.92 1022.24 1021.96 1021.32 1020.84 1020.20 1019.84 1019.32 1018.76 1018.36 1017.92 1017.56 1016.92 1016.40 1015.84 1015.36 1015.00 1014.60 1014.00 1013.56 1013.28 1012.88 1012.60 1012.44 1012.28 1012.04 1011.68 1011.28 1010.84 1010.56 1010.40 1010.20 1010.04 1009.92 1009.76 1009.72 1009.88 1010.20 1010.48 1010.84 1011.12 1011.48 1011.80 1012.28 1012.64 1013.00 1013.56 1013.88 1014.28 1014.56 1014.84 1015.20
1025.60 1025.64 1025.52 1025.40 1025.40 1025.68 1025.88 1025.92 1025.84 1025.80 1025.72 1025.64 1025.52 1025.40 1025.20 1025.00 1024.76 1024.52 1024.24 1023.92 1023.56 1023.24 1022.84 1022.20 1021.76 1021.36 1021.00 1020.52 1019.92 1019.40 1018.76 1018.08 1017.72 1017.28 1016.88 1016.36 1015.80 1015.20 1014.84 1014.48 1014.00 1013.44 1013.08 1012.80 1012.44 1012.20 1012.08 1011.84 1011.48 1011.04 1010.64 1010.20 1009.96 1009.76 1009.68 1009.56 1009.48 1009.40 1009.32 1009.56 1010.00 1010.44 1010.68 1010.96 1011.28 1011.68 1012.08 1012.40 1012.76 1013.24 1013.68 1014.08 1014.28 1014.60
1025.56 1025.52 1025.52 1025.56 1025.76 1025.92 1026.08 1026.12 1026.08 1025.92 1025.76 1025.60 1025.52 1025.36 1025.20 1024.96 1024.72 1024.48 1024.16 1023.76 1023.44 1023.12 1022.72 1022.20 1021.52 1021.20 1020.88 1020.24 1019.92 1019.36 1018.96 1018.40 1017.52 1016.88 1016.48 1016.16 1015.76 1015.24 1014.44 1013.96 1013.72 1013.36 1012.96 1012.64 1012.20 1011.84 1011.64 1011.40 1011.12 1010.76 1010.44 1010.04 1009.60 1009.36 1009.28 1009.24 1009.16 1009.24 1009.12 1009.00 1009.24 1009.56 1009.96 1010.40 1010.72 1011.04 1011.40 1011.80 1012.20 1012.64 1013.16 1013.52 1013.84 1014.08
1025.52 1025.48 1025.56 1025.80 1025.92 1026.04 1026.12 1026.16 1026.12 1025.92 1025.72 1025.64 1025.56 1025.36 1025.16 1024.88 1024.72 1024.44 1024.08 1023.64 1023.32 1022.92 1022.52 1022.00 1021.64 1021.16 1020.64 1020.40 1019.76 1019.12 1018.88 1018.48 1018.08 1017.32 1016.28 1015.60 1015.52 1015.20 1014.72 1013.72 1013.20 1013.12 1012.64 1012.32 1012.28 1012.04 1011.68 1011.36 1011.08 1010.60 1010.20 1009.88 1009.48 1009.16 1009.08 1008.96 1008.80 1008.68 1008.88 1008.88 1008.76 1009.04 1009.40 1009.80 1010.12 1010.40 1010.76 1011.24 1011.60 1012.08 1012.60 1012.96 1013.28 1013.64
1025.64 1025.72 1025.72 1025.84 1025.92 1026.04 1026.04 1026.00 1025.96 1025.80 1025.80 1025.68 1025.52 1025.28 1025.08 1024.84 1024.60 1024.36 1024.00 1023.60 1023.16 1022.76 1022.36 1022.00 1021.40 1020.96 1020.56 1019.92 1019.64 1019.12 1018.68 1018.32 1017.84 1017.60 1017.16 1016.20 1015.12 1014.64 1014.32 1014.08 1013.40 1012.60 1012.56 1011.96 1011.44 1011.20 1011.12 1010.92 1010.76 1010.48 1010.20 1009.96 1009.64 1009.20 1008.88 1008.68 1008.52 1008.44 1008.40 1008.60 1008.68 1008.60 1008.80 1009.00 1009.36 1009.76 1010.16 1010.60 1010.96 1011.36 1011.92 1012.56 1012.92 1013.16
1025.84 1025.84 1025.76 1025.68 1025.68 1025.72 1025.88 1025.88 1025.84 1025.76 1025.68 1025.68 1025.56 1025.24 1025.00 1024.72 1024.52 1024.28 1023.92 1023.52 1023.08 1022.64 1022.24 1021.68 1021.20 1020.84 1020.36 1019.92 1019.40 1018.88 1018.60 1018.40 1018.04 1017.32 1017.00 1016.24 1015.64 1014.72 1013.84 1013.28 1013.40 1012.92 1012.24 1011.64 1011.36 1010.84 1010.72 1010.44 1010.20 1010.24 1010.12 1009.76 1009.48 1008.96 1008.60 1008.20 1008.08 1008.04 1008.08 1008.16 1008.36 1008.52 1008.44 1008.40 1008.80 1009.16 1009.56 1010.00 1010.36 1010.84 1011.24 1011.80 1012.44 1012.80
1025.76 1025.84 1025.72 1025.64 1025.60 1025.72 1025.84 1025.88 1025.84 1025.68 1025.60 1025.48 1025.44 1025.20 1024.92 1024.64 1024.40 1024.12 1023.76 1023.36 1022.92 1022.52 1022.04 1021.56 1021.08 1020.64 1020.24 1019.72 1019.20 1018.80 1018.36 1018.00 1017.56 1017.20 1016.80 1016.20 1015.20 1014.64 1013.80 1012.72 1012.76 1012.52 1012.12 1011.52 1010.96 1010.44 1010.40 1010.40 1009.84 1009.80 1009.64 1009.36 1009.28 1008.92 1008.56 1008.12 1007.88 1007.72 1007.72 1007.80 1007.84 1008.00 1008.32 1008.08 1008.28 1008.40 1008.80 1009.36 1009.68 1010.12 1010.64 1011.20 1011.72 1012.20
1025.88 1025.84 1025.68 1025.68 1025.72 1025.76 1025.92 1025.88 1025.76 1025.64 1025.52 1025.40 1025.20 1024.96 1024.72 1024.40 1024.16 1023.84 1023.48 1023.12 1022.76 1022.32 1021.88 1021.36 1020.96 1020.60 1020.04 1019.40 1018.92 1018.52 1017.96 1017.56 1017.40 1017.04 1016.56 1016.08 1015.40 1014.88 1014.08 1012.76 1011.20 1012.00 1012.00 1011.36 1010.72 1009.60 1009.80 1010.08 1009.64 1009.20 1009.12 1009.08 1008.96 1008.76 1008.44 1008.12 1007.88 1007.72 1007.60 1007.52 1007.44 1007.52 1007.68 1008.00 1007.84 1007.84 1008.20 1008.56 1009.12 1009.56 1010.04 1010.60 1011.12 1011.60
1025.88 1025.80 1025.68 1025.76 1025.80 1025.84 1025.84 1025.76 1025.68 1025.60 1025.44 1025.32 1025.12 1024.84 1024.52 1024.20 1023.84 1023.56 1023.40 1023.04 1022.60 1022.08 1021.68 1021.24 1020.80 1020.36 1019.80 1019.12 1018.64 1018.04 1017.56 1017.00 1016.64 1016.48 1016.20 1015.84 1015.28 1014.64 1013.92 1013.12 1012.48 1011.20 1011.84 1011.28 1010.72 1009.20 1008.92 1009.60 1009.24 1008.72 1008.36 1008.48 1008.40 1008.36 1008.20 1008.00 1007.88 1007.68 1007.48 1007.36 1007.20 1007.08 1007.24 1007.68 1007.68 1007.56 1007.76 1008.16 1008.60 1008.96 1009.44 1009.92 1010.44 1010.96
1025.84 1025.80 1025.80 1025.84 1025.96 1025.92 1025.76 1025.68 1025.60 1025.60 1025.48 1025.24 1025.00 1024.68 1024.36 1024.00 1023.64 1023.28 1022.96 1022.64 1022.40 1021.92 1021.68 1021.20 1020.56 1020.16 1019.48 1018.88 1018.28 1017.88 1017.36 1016.96 1016.48 1015.84 1015.48 1015.16 1014.68 1014.32 1013.68 1012.76 1011.92 1011.12 1011.56 1011.20 1010.52 1009.44 1008.04 1009.12 1008.80 1008.32 1007.60 1007.88 1007.68 1007.64 1007.76 1007.76 1007.60 1007.44 1007.24 1007.04 1006.80 1006.72 1006.80 1007.12 1007.28 1007.32 1007.32 1007.52 1007.88 1008.52 1009.08 1009.44 1009.88 1010.44
1025.76 1025.84 1025.84 1025.92 1026.00 1025.88 1025.76 1025.64 1025.52 1025.52 1025.48 1025.28 1024.96 1024.64 1024.28 1023.92 1023.52 1023.12 1022.72 1022.28 1021.84 1021.56 1021.32 1020.96 1020.52 1019.72 1019.48 1018.96 1018.04 1017.44 1017.24 1016.76 1016.20 1015.52 1014.88 1014.60 1014.08 1013.64 1013.08 1012.20 1011.64 1010.80 1011.20 1010.96 1010.40 1008.84 1007.44 1008.44 1008.28 1007.68 1006.88 1007.24 1007.00 1007.04 1007.08 1007.16 1007.04 1006.80 1006.64 1006.48 1006.36 1006.28 1006.28 1006.48 1006.64 1006.92 1007.04 1007.20 1007.56 1008.08 1008.52 1009.00 1009.40 1009.84
1025.92 1025.88 1025.92 1025.96 1026.00 1025.88 1025.76 1025.52 1025.36 1025.44 1025.44 1025.28 1024.92 1024.56 1024.16 1023.80 1023.44 1023.00 1022.52 1022.00 1021.60 1021.24 1020.92 1020.64 1020.28 1019.64 1019.08 1018.52 1017.84 1017.36 1017.00 1016.64 1016.08 1015.52 1014.76 1014.12 1013.56 1012.84 1012.04 1011.36 1011.04 1010.24 1010.32 1010.12 1010.16 1008.80 1007.00 1007.68 1007.64 1006.96 1006.68 1006.56 1006.48 1006.40 1006.36 1006.44 1006.40 1006.16 1005.92 1005.76 1005.64 1005.60 1005.64 1005.88 1006.12 1006.32 1006.48 1006.76 1007.08 1007.44 1007.96 1008.44 1008.96 1009.32
1026.28 1026.00 1025.92 1025.96 1025.92 1025.84 1025.64 1025.36 1025.28 1025.36 1025.44 1025.16 1024.84 1024.48 1024.08 1023.68 1023.24 1022.84 1022.24 1021.76 1021.40 1021.08 1020.72 1020.36 1019.92 1019.40 1018.80 1018.24 1017.88 1017.36 1016.76 1016.04 1015.36 1014.76 1014.28 1013.80 1013.20 1012.52 1011.80 1011.00 1010.16 1009.68 1009.36 1009.52 1009.32 1008.24 1006.92 1006.84 1007.00 1006.20 1006.16 1006.04 1005.80 1005.68 1005.68 1005.56 1005.64 1005.44 1005.16 1005.00 1004.88 1004.88 1004.92 1005.12 1005.40 1005.68 1006.00 1006.28 1006.48 1006.92 1007.40 1008.00 1008.36 1008.76
1026.48 1026.20 1025.96 1025.96 1026.00 1025.84 1025.56 1025.36 1025.36 1025.24 1025.20 1025.04 1024.76 1024.48 1024.08 1023.68 1023.20 1022.56 1021.92 1021.40 1021.04 1020.68 1020.32 1019.92 1019.40 1018.88 1018.40 1017.96 1017.52 1016.96 1016.40 1015.88 1015.08 1014.36 1013.92 1013.48 1012.92 1012.36 1011.36 1010.16 1009.80 1008.72 1008.84 1008.44 1008.56 1007.88 1006.64 1006.12 1006.40 1005.80 1005.52 1005.52 1005.32 1005.12 1005.00 1004.92 1004.76 1004.60 1004.36 1004.24 1004.12 1004.12 1004.20 1004.40 1004.72 1005.00 1005.36 1005.80 1006.08 1006.36 1006.80 1007.40 1007.96 1008.48
1026.68 1026.40 1026.04 1026.04 1025.96 1025.76 1025.60 1025.48 1025.36 1025.08 1025.08 1025.00 1024.76 1024.48 1024.16 1023.60 1023.08 1022.36 1021.72 1021.28 1020.84 1020.44 1020.04 1019.60 1019.04 1018.48 1017.96 1017.48 1017.00 1016.48 1016.00 1015.48 1014.96 1014.44 1013.76 1013.04 1012.56 1011.92 1011.40 1010.12 1009.12 1008.16 1008.04 1007.44 1007.64 1007.40 1006.08 1005.92 1005.72 1005.64 1005.08 1004.96 1004.56 1004.52 1004.28 1004.20 1003.88 1003.64 1003.44 1003.32 1003.28 1003.28 1003.40 1003.64 1004.00 1004.32 1004.72 1005.12 1005.64 1005.96 1006.28 1006.80 1007.52 1008.28
1026.80 1026.64 1026.40 1026.12 1025.92 1025.84 1025.68 1025.52 1025.32 1025.08 1025.04 1025.04 1024.68 1024.48 1024.20 1023.64 1023.04 1022.24 1021.80 1021.36 1020.80 1020.36 1019.88 1019.24 1018.68 1018.04 1017.52 1017.08 1016.64 1016.12 1015.64 1015.12 1014.52 1014.08 1013.44 1012.64 1012.16 1011.44 1010.72 1009.96 1008.88 1007.88 1006.28 1006.12 1006.56 1006.64 1005.64 1005.84 1004.96 1005.44 1005.12 1004.72 1003.92 1004.00 1003.72 1003.44 1003.04 1002.88 1002.76 1002.60 1002.52 1002.48 1002.68 1002.96 1003.36 1003.72 1004.04 1004.60 1005.20 1005.64 1005.88 1006.36 1007.12 1007.80
1026.96 1026.76 1026.56 1026.24 1026.04 1025.88 1025.64 1025.52 1025.32 1025.12 1024.84 1024.88 1024.56 1024.28 1024.00 1023.48 1022.80 1022.24 1021.92 1021.24 1020.80 1020.44 1019.88 1019.24 1018.68 1018.04 1017.36 1016.84 1016.36 1015.84 1015.28 1014.64 1014.08 1013.48 1012.92 1012.40 1011.76 1011.00 1010.20 1009.48 1008.92 1008.12 1006.16 1005.08 1006.12 1005.92 1005.32 1005.24 1004.96 1004.96 1004.88 1004.88 1004.12 1003.40 1003.28 1002.92 1002.64 1002.44 1002.24 1002.08 1002.00 1001.88 1002.16 1002.44 1002.84 1003.12 1003.44 1004.04 1004.48 1005.00 1005.52 1006.00 1006.68 1007.24
1027.16 1026.92 1026.64 1026.36 1026.08 1025.88 1025.68 1025.56 1025.36 1025.04 1024.68 1024.40 1024.32 1023.96 1023.72 1023.36 1022.88 1022.36 1021.76 1021.12 1020.80 1020.40 1019.80 1019.24 1018.64 1017.92 1017.24 1016.76 1016.28 1015.76 1015.16 1014.44 1013.80 1013.20 1012.60 1012.00 1011.28 1010.60 1009.72 1008.88 1008.08 1007.08 1005.24 1004.28 1005.40 1005.56 1005.16 1004.72 1004.64 1004.60 1004.52 1004.40 1004.00 1003.80 1003.04 1003.00 1002.32 1002.08 1001.56 1001.36 1001.40 1001.48 1001.84 1002.16 1002.56 1002.96 1003.32 1003.68 1004.16 1004.72 1005.28 1005.72 1006.08 1006.36
1027.08 1026.92 1026.68 1026.48 1026.12 1025.92 1025.76 1025.56 1025.24 1024.84 1024.48 1024.20 1024.04 1023.68 1023.40 1023.04 1022.56 1022.16 1021.72 1021.32 1020.88 1020.40 1019.84 1019.24 1018.60 1017.88 1017.28 1016.72 1016.12 1015.64 1014.96 1014.12 1013.40 1012.84 1012.16 1011.44 1010.68 1009.92 1009.24 1008.52 1007.60 1006.40 1004.36 1003.52 1004.44 1004.72 1004.88 1004.76 1004.44 1004.40 1004.16 1004.24 1003.92 1003.84 1003.52 1002.84 1002.12 1001.68 1001.20 1000.92 1000.84 1000.96 1001.36 1001.80 1002.32 1002.64 1003.04 1003.52 1004.08 1004.52 1004.80 1005.32 1005.72 1005.92
1027.04 1026.84 1026.72 1026.48 1026.16 1025.96 1025.68 1025.40 1024.96 1024.60 1024.36 1024.08 1023.84 1023.60 1023.28 1022.92 1022.52 1022.08 1021.72 1021.40 1020.96 1020.44 1019.92 1019.36 1018.72 1017.88 1017.24 1016.60 1016.00 1015.40 1014.68 1013.88 1013.16 1012.52 1011.80 1010.96 1010.08 1009.20 1008.36 1007.48 1006.52 1005.24 1003.84 1003.32 1003.80 1004.08 1004.40 1004.36 1004.12 1004.16 1004.04 1003.84 1003.80 1003.52 1003.36 1003.08 1002.16 1001.52 1001.36 1000.92 1000.68 1000.76 1001.08 1001.48 1001.92 1002.16 1002.48 1002.96 1003.32 1003.84 1004.52 1005.00 1005.32 1005.60
1027.00 1026.88 1026.76 1026.56 1026.24 1025.84 1025.48 1025.16 1024.80 1024.56 1024.24 1024.04 1023.76 1023.56 1023.28 1022.92 1022.52 1022.20 1021.84 1021.48 1021.08 1020.64 1020.08 1019.52 1018.88 1018.08 1017.28 1016.72 1016.12 1015.48 1014.76 1013.96 1013.12 1012.40 1011.60 1010.76 1009.84 1008.92 1007.88 1006.88 1005.80 1004.64 1003.64 1003.44 1003.56 1003.80 1003.96 1004.08 1004.04 1003.92 1003.92 1003.96 1003.96 1003.96 1003.56 1002.64 1002.44 1002.04 1001.72 1000.92 1000.72 1000.72 1000.96 1001.20 1001.56 1001.92 1002.24 1002.52 1003.00 1003.60 1004.32 1004.92 1005.44 1006.00
1027.04 1026.92 1026.64 1026.28 1026.00 1025.68 1025.36 1025.04 1024.76 1024.44 1024.16 1023.96 1023.76 1023.56 1023.28 1022.96 1022.72 1022.44 1022.08 1021.68 1021.24 1020.80 1020.36 1019.80 1019.16 1018.36 1017.44 1016.76 1016.32 1015.68 1014.88 1014.08 1013.24 1012.36 1011.48 1010.64 1009.80 1008.72 1007.60 1006.68 1005.80 1004.88 1003.84 1003.44 1003.60 1003.72 1003.84 1003.84 1003.80 1003.80 1003.84 1003.76 1003.84 1003.56 1003.40 1002.84 1002.32 1001.88 1001.48 1001.28 1000.80 1000.72 1001.00 1001.28 1001.40 1001.68 1002.00 1002.40 1002.88 1003.32 1003.64 1003.96 1004.64 1005.16
1026.92 1026.68 1026.52 1026.24 1025.92 1025.64 1025.24 1025.08 1024.76 1024.44 1024.20 1024.04 1023.84 1023.64 1023.36 1023.12 1022.88 1022.64 1022.32 1021.92 1021.52 1021.20 1020.60 1019.96 1019.36 1018.60 1017.64 1016.64 1016.12 1015.64 1014.92 1014.08 1013.24 1012.44 1011.60 1010.76 1009.76 1008.92 1007.96 1006.88 1005.88 1005.16 1004.40 1003.72 1003.56 1003.80 1003.96 1003.96 1003.88 1003.80 1003.68 1003.44 1003.36 1003.16 1002.76 1002.48 1001.88 1001.28 1001.12 1001.04 1000.84 1000.92 1000.96 1001.12 1001.36 1001.64 1002.00 1002.36 1002.68 1003.04 1003.36 1003.72 1004.12 1004.72
1027.08 1026.80 1026.56 1026.32 1026.00 1025.60 1025.20 1024.96 1024.76 1024.56 1024.32 1024.12 1023.96 1023.80 1023.56 1023.28 1023.08 1022.76 1022.44 1022.12 1021.84 1021.40 1020.84 1020.20 1019.48 1018.72 1017.80 1016.84 1016.12 1015.60 1014.88 1014.20 1013.44 1012.80 1012.12 1011.36 1010.56 1009.64 1008.64 1007.80 1006.96 1006.04 1005.40 1004.92 1004.36 1004.08 1004.08 1004.24 1004.20 1004.00 1003.84 1003.64 1003.44 1003.40 1003.12 1002.68 1001.96 1001.28 1001.04 1001.04 1000.88 1000.52 1001.20 1001.36 1001.52 1001.76 1002.04 1002.44 1002.84 1003.28 1003.60 1003.96 1004.40 1004.76
1027.16 1026.92 1026.48 1026.08 1025.80 1025.48 1025.08 1024.88 1024.84 1024.64 1024.52 1024.32 1024.16 1023.92 1023.68 1023.40 1023.24 1022.96 1022.56 1022.16 1021.80 1021.36 1020.96 1020.36 1019.64 1018.84 1018.00 1017.08 1016.36 1015.84 1015.32 1014.72 1013.92 1013.16 1012.56 1012.00 1011.24 1010.40 1009.56 1008.24 1007.68 1007.20 1006.44 1005.84 1005.40 1005.16 1005.04 1005.04 1004.96 1004.84 1004.80 1004.72 1004.52 1004.12 1003.28 1002.80 1002.60 1002.24 1001.92 1001.76 1001.60 1001.68 1001.68 1001.88 1002.16 1002.40 1002.44 1002.72 1003.32 1003.76 1004.00 1004.20 1004.52 1004.84
1026.88 1026.68 1026.36 1026.12 1025.60 1025.32 1025.08 1024.96 1024.92 1024.80 1024.68 1024.48 1024.24 1024.00 1023.76 1023.52 1023.32 1023.08 1022.68 1022.40 1022.04 1021.60 1021.16 1020.64 1020.04 1019.32 1018.52 1017.60 1016.72 1016.16 1015.60 1014.96 1014.40 1013.60 1013.00 1012.36 1011.80 1010.88 1010.08 1009.56 1009.12 1008.44 1007.88 1007.20 1006.64 1006.12 1005.88 1005.80 1005.64 1005.44 1005.20 1004.84 1004.56 1004.36 1004.08 1003.52 1003.36 1003.00 1002.68 1002.52 1002.24 1002.28 1002.40 1002.44 1002.60 1002.96 1002.88 1003.24 1003.88 1004.24 1004.52 1004.72 1004.80 1004.96
1026.96 1026.60 1026.28 1025.96 1025.72 1025.32 1025.12 1024.96 1024.96 1024.84 1024.84 1024.68 1024.44 1024.08 1023.84 1023.64 1023.52 1023.28 1022.92 1022.60 1022.24 1021.84 1021.44 1020.96 1020.32 1019.64 1018.96 1018.12 1017.24 1016.64 1016.12 1015.40 1014.72 1014.16 1013.68 1013.12 1012.44 1011.60 1010.80 1010.20 1009.72 1009.32 1008.80 1008.40 1007.88 1007.44 1006.68 1006.12 1005.68 1005.44 1005.12 1004.88 1004.60 1005.04 1005.16 1005.00 1004.52 1003.96 1003.76 1003.56 1003.36 1003.44 1003.56 1003.36 1003.44 1003.60 1003.64 1003.88 1004.16 1004.76 1005.20 1005.48 1005.60 1005.60
1026.40 1026.16 1025.88 1025.64 1025.44 1025.12 1025.04 1024.92 1024.92 1024.88 1024.72 1024.68 1024.52 1024.24 1024.00 1023.76 1023.68 1023.48 1023.12 1022.80 1022.44 1022.04 1021.64 1021.08 1020.52 1019.92 1019.32 1018.64 1017.84 1017.20 1016.60 1016.00 1015.32 1014.64 1014.08 1013.60 1013.08 1012.56 1012.00 1011.28 1010.68 1010.16 1009.72 1009.20 1008.84 1008.48 1007.88 1007.08 1006.32 1005.72 1005.28 1004.96 1004.40 1004.88 1005.24 1005.68 1005.48 1005.12 1004.72 1004.56 1004.68 1004.64 1004.76 1004.64 1004.52 1004.60 1004.68 1004.88 1004.80 1005.28 1005.84 1006.04 1006.32 1006.40
1025.64 1025.80 1025.76 1025.52 1025.08 1025.04 1024.88 1024.92 1024.84 1024.76 1024.68 1024.60 1024.48 1024.28 1024.12 1023.84 1023.68 1023.52 1023.24 1023.00 1022.64 1022.28 1021.84 1021.40 1020.80 1020.28 1019.72 1019.08 1018.36 1017.60 1016.92 1016.36 1015.84 1015.28 1014.64 1014.04 1013.60 1013.28 1012.84 1012.44 1011.92 1011.24 1010.60 1010.08 1009.76 1009.28 1008.72 1008.08 1007.32 1006.76 1006.32 1005.84 1005.24 1005.56 1006.52 1006.88 1006.48 1006.24 1005.76 1005.72 1005.64 1005.76 1005.88 1005.68 1005.64 1005.68 1005.72 1005.96 1005.92 1005.72 1006.36 1007.00 1007.24 1007.20
1025.52 1025.44 1025.40 1025.20 1024.96 1024.88 1024.84 1024.84 1024.72 1024.60 1024.60 1024.52 1024.40 1024.20 1024.16 1024.00 1023.80 1023.52 1023.32 1023.08 1022.72 1022.44 1022.12 1021.68 1021.16 1020.64 1020.04 1019.48 1018.80 1018.04 1017.40 1016.88 1016.36 1015.80 1015.36 1014.92 1014.40 1013.96 1013.40 1012.84 1012.52 1012.08 1011.48 1011.20 1010.68 1010.08 1009.36 1008.80 1008.28 1007.84 1007.32 1006.84 1007.28 1008.16 1008.84 1008.36 1007.72 1007.28 1007.12 1007.28 1007.52 1007.24 1006.92 1006.72 1006.64 1007.04 1007.28 1006.96 1006.96 1007.16 1007.64 1007.88 1008.28 1008.20
1025.36 1025.28 1025.04 1024.92 1024.84 1024.76 1024.76 1024.76 1024.64 1024.52 1024.48 1024.44 1024.32 1024.12 1024.00 1024.04 1023.92 1023.64 1023.36 1023.12 1022.88 1022.60 1022.24 1021.88 1021.40 1020.92 1020.36 1019.80 1019.24 1018.56 1017.84 1017.32 1016.92 1016.48 1016.08 1015.60 1015.08 1014.52 1014.16 1013.84 1013.40 1012.96 1012.60 1012.00 1011.36 1010.92 1010.56 1010.08 1009.56 1009.40 1009.08 1009.20 1009.12 1009.36 1009.48 1009.40 1008.80 1008.68 1008.56 1008.44 1008.32 1008.08 1007.68 1007.32 1007.80 1008.20 1008.36 1008.12 1008.16 1008.52 1008.36 1008.80 1009.32 1009.36
1025.32 1024.84 1024.76 1024.80 1024.72 1024.68 1024.60 1024.64 1024.56 1024.48 1024.44 1024.32 1024.20 1024.04 1023.92 1023.92 1023.88 1023.72 1023.48 1023.28 1023.08 1022.76 1022.44 1022.04 1021.64 1021.24 1020.76 1020.16 1019.64 1019.12 1018.52 1017.92 1017.44 1017.12 1016.72 1016.24 1015.88 1015.52 1014.96 1014.52 1014.20 1013.84 1013.28 1012.76 1012.24 1011.84 1011.32 1010.84 1010.72 1010.64 1010.60 1010.28 1010.60 1011.32 1011.28 1010.72 1010.56 1010.64 1010.16 1009.56 1009.04 1008.64 1008.80 1008.60 1008.76 1008.84 1008.88 1009.04 1009.20 1009.08 1009.48 1009.80 1009.88 1010.00
1024.88 1024.60 1024.64 1024.64 1024.56 1024.56 1024.52 1024.56 1024.44 1024.44 1024.36 1024.24 1024.12 1024.00 1023.92 1023.88 1023.84 1023.72 1023.56 1023.40 1023.16 1022.92 1022.64 1022.28 1021.88 1021.44 1020.92 1020.52 1020.08 1019.56 1018.92 1018.44 1018.12 1017.76 1017.44 1017.00 1016.52 1016.08 1015.72 1015.28 1014.92 1014.56 1014.12 1013.76 1013.20 1012.96 1012.56 1012.40 1012.32 1012.24 1012.08 1012.00 1012.04 1011.64 1011.20 1010.72 1010.72 1010.76 1010.68 1010.40 1010.12 1009.88 1010.04 1009.76 1009.76 1009.68 1009.88 1009.92 1009.52 1009.52 1010.24 1010.24 1010.84 1011.32
1024.68 1024.36 1024.40 1024.48 1024.40 1024.40 1024.40 1024.44 1024.36 1024.32 1024.24 1024.12 1024.00 1023.88 1023.88 1023.88 1023.76 1023.68 1023.60 1023.48 1023.32 1023.08 1022.76 1022.44 1022.08 1021.72 1021.36 1020.84 1020.44 1020.08 1019.60 1019.04 1018.56 1018.16 1017.84 1017.52 1017.04 1016.60 1016.24 1015.80 1015.36 1015.00 1014.64 1014.44 1014.28 1013.96 1013.76 1013.72 1013.40 1012.96 1012.48 1012.12 1011.72 1011.36 1010.44 1010.12 1010.88 1011.56 1011.48 1011.64 1011.40 1010.96 1010.72 1010.60 1010.68 1010.72 1010.84 1010.64 1010.24 1010.40 1011.00 1011.60 1011.92 1012.08
1024.52 1024.20 1024.24 1024.24 1024.24 1024.20 1024.28 1024.24 1024.20 1024.16 1024.12 1024.04 1023.92 1023.80 1023.80 1023.80 1023.72 1023.60 1023.44 1023.40 1023.28 1023.12 1022.92 1022.60 1022.28 1021.96 1021.56 1021.12 1020.76 1020.36 1020.00 1019.60 1019.16 1018.64 1018.24 1018.00 1017.64 1017.12 1016.64 1016.24 1016.00 1015.68 1015.32 1015.20 1015.08 1014.92 1014.72 1014.20 1013.68 1013.20 1012.84 1012.36 1011.88 1011.12 1011.68 1012.40 1012.52 1012.60 1012.64 1012.56 1012.44 1012.16 1011.84 1011.64 1011.64 1011.64 1011.64 1011.52 1011.20 1011.28 1011.76 1012.28 1012.24 1013.24
1024.20 1024.00 1024.04 1024.00 1024.08 1024.04 1024.04 1024.04 1024.00 1024.00 1023.96 1023.92 1023.80 1023.72 1023.76 1023.64 1023.64 1023.52 1023.44 1023.32 1023.28 1023.12 1023.00 1022.80 1022.48 1022.20 1021.84 1021.40 1020.96 1020.68 1020.36 1019.96 1019.60 1019.20 1018.72 1018.36 1018.20 1017.88 1017.36 1016.96 1016.64 1016.32 1016.08 1015.84 1015.60 1015.28 1014.92 1014.56 1014.20 1013.84 1013.60 1013.20 1013.16 1012.96 1013.32 1013.48 1013.52 1013.40 1013.36 1013.28 1013.36 1013.16 1013.00 1012.84 1012.68 1012.60 1012.52 1012.36 1012.28 1012.44 1012.40 1012.36 1012.04 1013.92
1023.76 1023.84 1023.84 1023.84 1023.84 1023.84 1023.84 1023.88 1023.84 1023.84 1023.84 1023.76 1023.72 1023.68 1023.76 1023.60 1023.48 1023.48 1023.44 1023.28 1023.24 1023.08 1023.04 1022.88 1022.64 1022.36 1022.08 1021.76 1021.28 1020.80 1020.52 1020.28 1019.96 1019.64 1019.24 1018.88 1018.56 1018.32 1017.96 1017.56 1017.20 1016.84 1016.56 1016.28 1016.00 1015.76 1015.48 1015.20 1014.96 1014.68 1014.40 1014.56 1014.48 1014.24 1014.44 1014.32 1014.44 1014.56 1014.60 1014.52 1014.28 1014.04 1014.16 1013.92 1013.60 1013.44 1013.56 1013.72 1013.40 1013.12 1013.16 1013.44 1013.88 1014.48
1023.52 1023.56 1023.56 1023.60 1023.64 1023.64 1023.64 1023.68 1023.68 1023.68 1023.72 1023.64 1023.56 1023.48 1023.64 1023.56 1023.48 1023.44 1023.32 1023.20 1023.12 1023.00 1022.88 1022.88 1022.72 1022.44 1022.20 1021.92 1021.56 1021.20 1020.84 1020.44 1020.12 1019.84 1019.60 1019.24 1018.88 1018.56 1018.28 1018.00 1017.72 1017.48 1017.20 1016.96 1016.56 1016.36 1016.12 1015.92 1015.72 1015.40 1015.24 1015.36 1015.24 1015.28 1015.36 1015.28 1015.36 1015.24 1015.24 1015.12 1015.28 1015.24 1015.16 1014.88 1014.68 1014.88 1015.04 1015.36 1015.32 1014.84 1014.92 1015.12 1015.48 1015.80
Wind_Speed
5 7 9 8 8 8 8 8 8 8 8 7 7 7 8 7 7 9 12 13 11 11 10 11 10 10 12 13 12 13 12 16 20 15 14 15 14 19 26 26 23 22 23 24 23 19 15 16 19 22 22 23 20 21 22 21 20 23 23 24 24 22 19 21 21 22 23 27 25 23 22 21 21 21
6 7 9 8 8 8 8 7 7 7 6 5 6 5 5 4 5 6 8 12 9 11 10 7 10 13 12 11 12 11 12 18 20 15 15 14 14 23 24 23 22 23 24 24 24 23 19 17 18 22 23 22 22 20 21 21 21 22 23 25 23 21 20 19 21 22 23 24 22 22 22 22 21 21
7 8 9 8 7 7 7 6 5 4 4 5 4 5 5 4 4 5 6 8 9 7 11 11 11 11 13 12 11 11 11 14 19 14 14 14 20 25 18 22 23 23 24 24 22 24 26 21 18 17 22 21 23 22 21 22 22 24 27 23 24 24 21 20 21 24 24 24 22 23 23 22 22 21
7 8 8 7 6 5 5 5 4 4 4 4 5 5 6 6 5 5 6 7 10 9 9 11 12 14 14 12 12 13 11 12 18 13 13 15 20 13 14 18 21 22 22 19 23 25 25 25 21 19 19 20 24 25 22 23 25 24 22 23 24 24 23 22 21 24 24 24 23 23 23 23 23 22
7 7 7 6 5 4 4 4 4 5 6 5 6 6 6 7 7 7 7 9 11 8 6 8 10 12 13 13 12 13 13 14 13 13 12 13 13 13 11 13 18 19 20 23 23 23 25 25 22 20 20 21 23 23 23 22 23 24 23 24 24 23 23 24 23 23 23 23 22 22 23 23 23 23
5 5 6 5 4 3 4 4 5 6 7 7 8 8 8 7 7 7 7 8 9 13 9 8 8 10 10 13 12 13 15 15 14 15 14 11 11 11 11 11 12 19 21 22 23 22 22 23 23 21 17 19 21 20 21 22 22 23 25 26 25 24 25 24 22 23 23 23 22 21 24 23 23 24
5 5 5 4 3 3 4 5 6 6 8 7 8 9 7 7 7 7 6 8 10 14 12 10 11 11 11 10 13 14 12 12 13 15 14 13 12 10 12 12 10 17 21 22 21 21 20 21 22 23 21 17 20 21 22 23 24 24 24 25 25 26 25 24 26 25 25 23 24 22 22 24 23 25
4 4 4 3 3 4 5 6 7 7 7 7 7 8 7 6 7 6 6 7 8 9 11 10 11 10 12 11 11 11 12 12 12 11 13 13 13 12 11 12 13 14 21 22 21 19 19 19 21 22 23 21 19 20 21 22 23 22 23 23 24 24 25 25 25 24 25 27 26 25 22 24 26 28
4 3 3 3 4 5 6 6 7 7 9 7 7 7 6 6 6 6 6 7 7 9 11 11 8 9 9 9 10 11 13 13 11 10 11 12 13 14 12 11 11 17 19 18 19 19 19 20 21 22 23 23 21 19 19 21 23 23 24 24 24 25 25 25 25 25 26 26 26 27 25 24 26 28
3 4 2 5 6 7 6 5 6 7 8 8 8 8 8 7 7 7 7 6 7 8 9 10 11 8 10 10 9 10 11 13 14 13 11 11 10 12 12 10 8 9 9 10 13 16 17 18 21 21 21 23 24 19 17 19 22 22 23 25 26 27 27 26 26 27 27 27 26 27 26 24 25 27
4 4 4 5 5 6 4 5 6 7 8 8 8 8 7 7 7 8 7 7 7 7 9 9 8 10 8 9 11 11 11 12 11 15 16 14 9 10 11 14 10 9 12 13 16 15 15 19 18 20 21 20 21 20 16 17 19 21 22 23 24 25 26 27 27 28 28 27 27 26 26 25 25 27
4 6 5 4 4 5 5 5 6 7 7 7 8 8 7 8 8 8 8 7 7 7 8 8 10 9 10 9 8 9 10 11 10 9 12 17 17 14 11 10 14 12 10 12 12 12 12 12 13 14 15 18 21 22 17 16 19 21 22 22 22 25 27 28 28 28 27 27 28 27 26 24 25 27
5 4 4 4 4 6 10 11 8 8 8 7 8 8 8 8 8 8 8 8 7 7 8 10 8 10 10 10 11 11 11 12 13 13 13 14 15 15 15 12 9 11 13 11 11 11 9 10 10 10 12 12 16 16 19 14 17 20 20 21 22 23 25 27 28 28 28 28 28 28 28 27 26 26
4 3 4 4 10 9 8 9 10 11 11 11 8 9 9 9 9 8 8 9 8 8 9 10 11 11 11 11 11 12 12 12 12 13 13 15 15 16 17 16 9 9 11 12 13 11 7 8 12 9 10 10 10 10 11 9 9 13 18 21 22 23 23 27 28 29 28 27 29 29 28 28 28 28
3 2 3 3 5 6 4 6 10 11 11 12 13 14 14 13 11 10 11 10 10 10 10 10 11 11 13 13 12 12 13 12 13 13 14 14 14 15 16 18 15 2 8 11 12 14 7 7 11 11 11 9 10 10 10 15 15 14 16 18 21 23 24 25 27 28 29 30 28 28 29 28 28 28
3 2 2 3 3 4 3 4 5 7 10 12 13 14 15 15 16 14 12 11 11 11 11 11 12 12 12 13 12 13 14 15 15 14 13 14 14 15 17 16 16 12 9 13 14 17 10 6 11 12 10 9 8 11 15 19 21 21 19 18 20 23 22 24 26 28 27 27 28 30 30 29 29 29
2 1 2 3 4 3 5 4 4 5 6 10 13 13 14 14 15 15 17 17 13 11 10 11 13 12 13 14 13 13 15 16 17 17 14 14 14 14 16 16 17 15 10 13 14 17 14 5 10 13 11 10 11 11 14 19 23 24 24 20 20 21 22 23 25 26 29 30 31 28 28 29 29 28
2 0 3 4 3 3 3 4 5 5 5 7 8 8 8 9 11 14 16 17 19 14 9 11 13 14 12 14 15 17 16 18 18 18 18 17 17 17 17 19 18 16 10 13 13 17 16 8 10 13 12 8 9 9 12 17 20 22 23 23 22 21 22 23 26 26 28 29 27 28 29 28 29 29
1 1 4 4 2 3 4 5 7 6 7 8 8 9 9 9 9 10 11 11 11 10 9 11 12 13 14 14 16 15 16 17 17 16 19 19 19 18 18 16 13 14 10 13 11 17 14 8 10 11 10 9 9 9 12 17 19 22 23 24 23 22 22 23 25 27 29 28 28 29 27 28 29 30
5 2 4 2 2 3 5 8 13 11 8 9 10 10 10 9 9 9 11 15 15 13 12 11 12 13 15 18 16 17 18 18 17 16 15 15 15 15 15 16 13 12 10 11 12 15 16 10 10 10 8 9 10 8 8 13 18 21 22 23 23 21 22 23 25 26 27 27 28 28 29 29 29 30
7 1 2 1 2 5 7 11 14 16 14 10 10 10 10 10 9 10 10 13 15 16 18 19 20 21 21 19 20 22 25 21 21 17 15 14 14 14 15 16 14 13 10 9 10 13 18 11 9 11 10 9 11 11 11 10 15 21 23 23 23 22 22 23 24 25 26 26 27 29 30 29 27 28
6 6 4 4 5 8 9 14 16 19 15 10 9 9 10 11 11 11 10 10 11 15 16 17 19 19 19 20 21 22 23 24 20 16 16 17 15 14 14 21 15 15 12 12 9 12 16 11 9 10 9 9 9 10 11 12 14 19 20 24 24 22 22 23 24 25 26 27 26 28 29 28 27 21
6 6 6 10 11 10 12 16 18 20 16 9 9 8 8 10 11 11 12 13 12 11 11 13 14 15 17 16 15 17 23 23 20 16 16 15 14 16 18 18 17 17 11 9 10 13 13 10 10 7 8 10 7 7 10 12 12 10 10 11 13 19 21 22 23 24 26 25 24 26 28 28 26 15
7 7 6 8 11 14 15 17 19 18 18 10 8 7 7 9 12 12 11 13 12 10 12 14 14 15 15 15 15 15 16 16 18 16 15 15 15 15 17 16 15 15 15 6 7 10 10 9 10 7 9 8 7 2 5 8 6 7 8 10 9 13 18 21 20 25 25 25 27 27 27 27 26 14
6 6 7 7 11 15 17 17 18 17 17 14 8 7 7 10 13 14 11 13 14 11 13 13 13 13 13 14 14 14 15 15 14 15 15 15 15 14 17 16 15 17 17 13 9 10 10 9 9 7 7 8 10 10 8 8 10 9 9 9 9 7 7 9 8 11 19 25 25 25 24 25 29 21
5 5 6 6 11 16 17 16 16 16 15 15 7 10 15 17 18 14 10 9 9 10 11 12 13 13 13 14 14 15 15 15 15 15 15 15 15 14 12 14 15 15 17 6 13 12 11 9 9 7 7 7 8 9 10 8 8 8 9 7 8 7 8 7 7 8 9 11 12 16 20 26 26 29
5 5 6 8 14 17 16 15 15 14 14 10 9 15 15 16 18 14 9 9 10 11 12 12 13 14 14 14 15 16 16 16 16 16 16 17 17 16 15 15 14 15 15 9 7 10 10 9 8 8 8 6 7 6 7 8 9 7 9 5 6 5 7 7 9 9 9 10 11 19 21 22 26 27
5 6 7 9 15 15 16 15 14 13 12 10 14 14 14 16 14 10 10 10 11 11 12 13 14 14 14 13 14 15 16 16 17 16 16 17 18 16 14 15 15 15 11 6 6 7 9 9 7 8 8 7 7 7 9 9 8 8 9 7 4 3 6 8 8 8 8 9 9 10 10 10 12 14
5 9 13 16 15 15 15 14 12 9 11 14 13 13 14 13 8 9 10 11 11 12 12 12 13 14 15 14 13 14 16 16 15 15 15 17 17 17 16 15 14 14 13 4 4 6 7 6 7 5 6 7 7 8 8 9 8 9 9 5 1 3 5 6 6 7 7 7 8 9 11 12 12 13
12 13 14 15 14 13 11 7 5 7 9 13 13 12 12 8 8 7 9 10 11 11 12 13 13 14 14 14 14 14 15 15 16 16 16 17 17 17 16 15 16 15 17 15 1 4 4 5 5 6 6 7 7 8 8 8 10 9 6 7 3 2 1 5 5 5 6 6 7 8 7 9 10 11
8 11 10 9 11 10 11 7 8 8 10 9 8 7 7 7 7 8 9 10 10 10 11 12 12 13 13 14 13 14 15 16 16 16 16 15 16 16 15 14 15 16 16 15 13 7 1 2 4 3 4 5 4 5 6 7 9 9 4 0 1 3 1 3 3 5 5 5 5 5 5 5 6 7
7 6 8 9 7 6 5 7 6 7 7 7 6 7 7 8 6 9 12 12 9 10 10 11 12 13 14 15 14 13 14 15 15 16 16 16 16 15 14 15 16 15 15 15 13 12 12 10 8 9 10 8 9 8 5 6 9 7 6 6 6 7 6 6 5 4 6 8 7 5 5 5 6 6
6 5 6 7 7 6 5 6 7 7 7 7 8 7 8 8 7 8 8 10 10 11 11 12 12 13 14 14 14 13 13 15 15 15 16 16 15 15 13 14 14 15 16 15 14 13 8 4 7 9 9 11 12 13 11 11 10 9 9 8 7 9 7 7 7 6 7 9 7 6 6 4 3 6
4 4 5 6 6 5 5 6 6 7 7 7 8 8 8 8 8 8 9 9 10 10 11 11 11 13 13 14 14 14 13 14 15 16 16 15 15 15 16 16 16 14 14 13 14 13 13 10 5 2 4 11 17 19 14 11 11 11 10 9 9 10 9 8 9 8 7 6 8 8 6 7 6 5
2 3 6 7 6 4 4 5 5 5 6 6 6 8 7 7 8 8 9 9 9 10 10 11 11 12 13 13 14 14 13 13 14 14 14 13 14 14 15 16 16 16 14 15 14 13 12 11 8 6 7 6 10 14 24 22 13 11 9 12 10 10 10 9 9 9 9 7 8 10 8 8 8 7
6 3 4 6 5 4 4 5 4 5 5 5 5 6 7 8 7 7 8 8 8 9 10 11 11 12 12 13 13 14 13 13 13 14 15 15 14 13 13 13 14 15 14 15 14 13 12 12 12 11 11 12 15 17 16 25 27 13 11 11 11 10 9 10 11 11 11 10 8 9 10 7 8 7
6 5 4 4 4 3 3 4 4 5 4 4 6 6 6 7 7 8 8 7 9 9 9 9 10 11 12 12 13 13 13 12 12 14 14 14 14 13 13 14 14 14 15 14 12 13 13 14 14 14 15 17 16 14 13 10 24 28 12 10 10 8 8 10 12 13 10 10 12 11 9 9 9 9
3 5 3 4 3 3 3 4 4 4 5 4 5 6 6 6 6 7 8 8 9 8 9 9 10 11 11 12 12 13 13 12 11 12 12 13 14 14 14 13 13 14 13 13 14 14 12 12 14 14 14 10 12 11 12 12 13 18 27 12 9 9 8 12 12 11 11 11 12 10 12 13 11 11
5 3 3 3 3 2 2 3 4 4 5 4 4 5 6 5 6 7 7 8 8 8 9 9 10 10 10 12 12 12 12 13 12 12 12 12 13 13 13 13 12 12 13 14 13 14 14 15 15 14 13 12 12 8 6 9 15 11 20 29 13 11 11 9 10 10 10 11 11 13 12 11 14 19
5 1 2 1 2 2 1 2 4 3 5 4 4 4 4 4 6 6 7 7 8 8 8 9 10 10 10 11 11 11 12 13 12 11 10 11 11 12 12 11 11 11 12 13 14 13 13 14 13 11 8 5 1 0 4 8 10 12 14 23 32 20 11 8 10 9 9 7 8 12 11 11 12 8
5 1 2 1 1 1 1 1 2 3 4 4 4 5 3 3 5 5 5 6 6 8 8 9 9 9 9 10 10 10 11 12 12 11 10 9 11 11 13 12 11 12 12 13 13 13 14 12 12 13 10 6 6 1 7 15 15 13 14 15 22 28 27 21 13 10 8 6 10 12 12 11 10 11
6 3 3 1 0 1 0 1 2 3 4 6 5 5 4 2 3 5 6 6 7 7 7 8 9 9 9 9 9 10 11 11 11 12 11 10 10 10 12 10 11 11 12 13 12 12 9 10 11 12 11 10 10 14 16 13 12 11 11 10 11 20 27 27 26 21 13 8 7 10 11 11 12 12
6 3 3 2 2 0 0 1 2 2 4 4 5 6 4 2 3 5 7 6 6 7 7 8 8 8 8 9 9 8 9 10 10 11 11 11 9 9 9 9 9 9 9 9 9 9 10 11 12 12 12 12 12 12 13 12 11 11 11 11 11 9 13 21 26 28 26 24 19 14 8 2 6 8
4 4 4 4 2 1 1 1 2 3 3 4 4 5 3 1 2 3 3 4 6 6 6 7 7 8 8 8 9 9 9 9 9 10 10 10 9 8 7 8 8 9 9 8 9 10 10 11 11 11 12 13 11 12 12 12 12 11 10 10 10 11 11 9 13 18 22 25 26 25 28 27 22 18
5 5 4 4 3 2 2 2 1 2 3 3 4 5 4 1 0 2 3 3 4 5 6 6 7 8 8 7 8 9 9 10 10 9 8 9 9 8 7 7 8 8 9 8 8 9 9 9 9 10 11 11 10 11 11 11 11 10 11 12 12 11 10 10 13 14 14 13 20 27 26 24 23 23
Wind_Direction
38 47 54 49 41 35 35 35 35 28 22 19 13 17 14 2 351 345 337 330 334 337 349 331 336 352 340 334 333 332 337 334 334 333 333 332 327 325 325 322 320 322 327 328 318 300 274 246 243 246 233 223 219 215 211 211 213 212 208 209 210 209 202 201 199 202 199 201 194 188 191 188 186 184
42 53 53 49 48 37 33 35 30 28 16 9 5 7 3 4 360 339 331 317 325 327 329 332 327 337 337 333 331 335 332 330 332 331 329 326 325 323 323 323 327 330 329 326 325 319 299 265 247 245 243 231 223 219 214 211 207 211 206 210 208 210 207 202 197 202 199 200 193 188 188 189 187 187
49 57 55 50 52 41 34 28 25 12 10 358 353 348 356 354 343 330 316 313 316 337 326 327 330 326 328 330 326 325 324 326 330 326 323 323 324 325 325 327 325 323 322 321 331 340 333 306 267 243 243 238 227 226 219 215 212 211 214 205 205 206 203 205 198 201 202 199 194 191 190 187 185 186
58 61 58 53 50 38 33 21 6 360 350 354 349 350 353 348 343 333 323 313 312 333 326 322 320 326 324 323 324 323 321 323 325 322 322 322 324 324 322 319 320 318 318 332 338 335 332 327 305 266 248 242 235 225 219 214 217 213 209 208 203 200 199 201 197 203 202 199 197 190 190 189 186 185
64 64 59 52 46 39 28 4 353 354 354 354 355 354 352 349 349 349 342 332 322 316 323 313 318 318 322 322 326 321 325 324 323 320 320 320 320 319 316 317 317 318 327 331 330 329 326 324 319 301 269 252 242 236 226 217 213 209 203 205 203 201 199 198 195 200 204 199 198 193 189 188 186 185
59 64 61 46 36 26 14 358 359 360 1 359 357 358 355 354 353 351 344 332 324 329 328 321 314 314 324 315 322 327 326 324 322 321 319 317 315 314 316 315 316 319 323 321 320 320 322 321 322 319 295 271 260 245 235 224 214 207 204 203 198 202 203 197 194 198 201 203 201 195 191 188 186 185
64 60 58 41 21 353 11 8 9 14 5 3 2 358 356 353 347 341 337 327 329 334 331 323 323 325 324 319 322 321 319 316 318 317 319 317 314 311 313 312 312 315 314 313 313 316 317 318 320 319 312 287 266 257 244 231 217 210 207 205 199 200 202 196 196 197 197 202 200 199 191 189 186 186
66 70 54 31 357 6 28 22 19 10 8 6 4 357 352 343 336 331 326 324 319 326 322 331 328 327 320 319 315 311 313 315 317 316 311 308 309 311 311 311 310 310 310 309 310 312 315 316 315 313 308 301 280 262 249 240 228 214 208 204 201 199 200 199 198 193 195 198 203 202 196 191 189 189
71 68 62 8 14 34 43 24 17 5 8 5 359 352 341 334 327 322 320 316 320 322 323 321 322 320 317 314 312 316 319 318 313 308 309 314 315 311 307 303 301 307 307 307 311 313 314 313 310 306 304 302 293 268 248 240 236 223 209 203 198 202 202 199 198 195 196 198 198 201 200 194 192 193
69 63 34 24 50 56 51 28 16 7 5 360 354 347 337 329 321 316 310 308 314 315 316 321 321 329 325 321 319 322 321 320 319 317 313 308 306 308 304 300 306 309 310 316 315 314 312 310 309 307 307 307 301 280 249 236 236 234 223 209 203 202 201 199 198 197 197 197 196 197 200 196 194 193
86 55 37 51 69 76 63 42 23 13 3 356 348 337 329 320 318 313 308 309 310 314 318 319 319 319 320 317 318 322 317 312 315 316 316 310 308 300 302 305 304 303 300 295 293 288 296 304 305 302 300 302 309 301 266 245 236 233 234 227 212 205 202 200 199 199 197 195 196 195 198 195 194 194
78 53 47 68 92 102 63 48 27 20 359 350 342 335 328 323 319 313 308 304 305 311 317 320 323 324 319 319 310 311 314 315 310 312 313 312 314 309 301 296 303 305 298 300 303 297 296 290 285 293 310 315 310 304 289 258 246 241 234 233 226 211 205 203 199 199 197 195 196 194 194 193 194 194
72 63 50 46 51 61 58 43 27 16 1 350 341 333 330 324 321 311 305 301 302 303 312 315 317 319 321 320 320 324 326 325 319 313 309 302 302 302 300 292 283 290 296 294 289 290 293 298 301 305 298 297 299 297 292 270 250 242 238 232 229 226 211 203 199 200 198 196 197 195 193 192 192 195
84 77 63 28 47 53 65 36 18 6 355 344 337 328 330 324 319 313 311 309 304 307 314 318 320 320 321 319 321 319 316 313 310 309 307 304 304 302 298 291 283 291 290 293 290 285 283 290 289 287 287 289 293 294 296 286 259 244 238 235 230 226 220 211 202 202 199 197 197 195 194 192 192 193
65 56 61 43 51 42 60 20 3 355 345 337 332 326 321 316 314 316 317 310 308 306 308 311 313 313 312 312 314 313 314 315 315 311 306 301 302 303 305 305 306 230 289 292 290 282 269 272 280 282 278 282 285 286 278 295 296 275 255 242 235 230 221 220 209 203 198 199 197 196 194 193 192 193
84 61 47 42 62 27 56 9 350 341 335 331 326 323 318 314 309 307 308 311 309 303 305 310 309 310 310 310 313 312 316 317 313 307 300 298 295 296 295 292 291 305 308 293 290 287 278 262 270 273 268 268 266 274 285 292 294 294 283 261 245 236 225 217 218 208 201 199 198 197 196 194 193 193
120 97 56 74 43 28 14 350 333 334 328 324 322 316 316 311 308 307 307 302 295 293 295 301 305 308 310 310 308 309 310 313 308 307 302 298 292 288 286 288 292 293 298 288 283 282 282 266 269 272 265 262 266 262 262 271 278 279 280 273 256 242 230 214 217 212 204 200 201 199 197 195 194 192
141 340 97 71 39 349 333 320 328 333 328 323 319 317 315 311 309 307 304 302 298 292 291 300 303 303 305 302 302 305 310 313 312 309 305 301 295 292 287 288 285 285 283 275 282 279 276 271 264 264 269 253 258 254 256 260 267 270 271 270 263 245 232 219 213 213 211 204 200 198 200 196 193 191
349 66 81 86 46 329 320 315 332 341 334 325 321 318 315 313 308 306 305 304 304 301 303 304 298 298 301 297 298 302 308 308 305 302 299 299 296 290 286 279 273 274 265 263 260 269 280 270 263 259 268 268 260 259 262 258 261 262 262 260 257 244 232 222 214 211 211 205 197 199 197 196 195 194
339 54 87 94 332 315 318 323 333 340 342 332 327 322 317 315 311 307 300 296 292 294 301 303 300 298 295 293 293 298 307 309 306 301 297 295 291 293 295 293 291 271 273 258 261 269 275 265 260 263 252 260 264 256 253 254 256 261 260 258 253 242 231 223 215 213 211 206 199 195 196 199 198 195
343 341 98 68 309 323 329 330 339 337 348 334 329 323 319 316 315 313 311 309 309 308 307 305 301 296 294 294 298 307 310 311 311 310 306 303 306 300 296 294 292 284 283 255 247 259 270 264 261 268 261 254 262 264 262 260 256 255 257 256 251 238 229 221 215 212 210 207 200 195 197 198 200 197
350 321 360 343 334 336 328 336 337 333 340 336 327 324 321 321 321 315 318 322 318 314 310 306 305 307 309 311 315 316 316 313 312 311 308 309 305 295 291 295 291 287 277 260 238 255 257 269 253 261 266 263 249 261 262 259 255 251 249 249 245 234 222 218 213 210 208 206 202 198 196 194 194 193
344 343 325 334 336 333 330 332 332 331 335 335 326 321 318 319 321 321 327 323 320 322 321 323 325 321 320 321 321 319 317 315 315 315 310 310 305 298 297 293 293 293 266 245 222 241 256 249 250 244 269 265 262 242 264 258 254 248 242 241 238 227 219 214 208 206 209 203 202 201 196 193 190 191
334 326 321 330 330 331 329 330 330 329 329 333 321 321 320 321 325 324 323 320 321 319 325 323 324 321 320 322 323 323 324 321 322 319 317 313 306 297 293 289 284 278 278 243 222 246 252 245 256 225 241 273 288 273 276 287 278 267 241 236 233 224 215 212 207 204 204 202 201 199 198 194 188 192
320 318 325 326 323 326 327 328 327 325 325 327 325 316 323 325 315 321 324 322 323 325 326 325 324 324 325 326 326 328 326 321 320 321 318 315 307 299 297 291 283 279 264 256 217 237 247 245 247 235 242 243 264 278 271 276 282 277 255 222 224 214 188 205 201 204 208 204 201 199 200 195 191 191
314 311 320 321 321 323 325 324 323 322 323 323 324 327 328 328 332 332 323 320 327 329 329 327 327 328 328 329 331 330 329 326 326 326 322 318 314 305 296 287 283 279 278 249 189 219 230 244 238 241 238 238 257 250 274 278 272 291 284 232 213 193 174 182 185 197 192 198 202 200 199 197 197 198
300 315 324 317 321 321 321 323 321 321 319 325 331 331 335 335 334 335 335 334 336 335 331 329 331 331 331 333 334 334 334 331 330 330 326 326 325 321 318 310 301 286 272 271 207 210 216 233 237 238 248 253 278 306 301 303 296 309 307 263 223 183 169 163 185 195 189 189 199 195 198 198 200 201
309 328 323 316 318 321 324 322 320 315 322 332 332 338 337 341 341 341 341 344 341 335 334 336 334 332 330 330 332 335 334 332 332 331 329 332 329 327 327 325 325 330 314 271 204 213 214 224 234 239 250 263 271 277 284 279 277 281 286 269 220 165 169 181 184 188 192 191 184 183 187 195 201 201
324 322 324 327 327 325 322 320 314 321 331 335 338 339 342 346 348 345 346 344 343 342 340 335 333 332 331 331 327 328 332 330 331 334 334 335 336 335 337 335 341 347 350 275 198 210 225 233 236 237 243 244 251 254 258 272 287 284 275 288 287 155 146 177 177 176 178 169 178 174 188 191 188 189
332 330 328 322 324 325 322 321 329 339 333 335 338 341 348 349 348 349 347 346 346 341 337 337 335 329 326 330 332 330 334 340 342 341 340 340 343 346 344 345 355 356 4 359 214 195 217 256 284 284 268 243 237 256 259 273 270 265 264 248 205 51 112 139 146 156 147 162 169 176 185 186 185 176
331 322 319 308 304 307 306 329 344 337 335 341 344 345 347 348 348 348 352 347 342 340 337 335 332 329 328 327 334 340 344 345 345 347 344 345 346 345 346 351 360 360 6 4 12 21 160 3 351 343 350 342 360 344 319 291 275 286 278 257 157 147 142 91 115 127 132 120 103 107 110 128 143 171
312 311 312 320 329 331 350 355 350 348 344 342 344 345 346 350 347 346 344 345 346 344 340 335 333 333 334 336 337 339 345 347 345 349 350 349 345 348 345 1 6 2 3 6 11 28 43 42 46 59 60 49 41 357 316 28 29 9 27 20 60 58 52 92 90 81 105 106 97 98 112 127 137 144
314 329 332 337 334 342 356 360 350 344 352 343 343 346 349 351 350 351 354 353 347 341 342 341 338 335 336 335 338 339 343 349 349 349 351 351 351 347 0 10 9 7 5 4 6 7 20 53 62 64 65 63 55 43 26 29 20 20 32 27 45 55 47 44 66 77 90 86 87 89 83 73 98 139
274 305 330 320 316 319 1 357 352 345 347 346 346 342 346 350 352 352 351 350 343 342 341 339 338 340 338 338 341 342 343 344 352 352 355 353 352 358 2 6 9 8 10 11 9 5 359 359 343 316 43 62 65 49 36 28 23 24 29 36 38 50 37 46 52 52 57 86 106 85 69 50 37 35
345 315 327 312 312 329 354 358 338 345 348 345 348 341 340 344 350 346 352 346 341 342 341 340 342 340 343 340 340 342 343 347 349 353 355 356 0 3 3 8 6 7 8 13 13 6 4 2 1 18 35 15 50 49 40 30 20 17 29 39 36 44 41 38 50 48 56 51 73 91 72 58 43 23
292 289 293 299 309 333 2 326 337 347 349 338 346 344 345 342 344 352 352 340 341 342 343 342 342 344 343 342 340 342 344 349 353 356 357 1 1 3 6 10 7 7 10 15 11 8 10 17 20 30 40 37 49 43 26 19 28 15 31 37 28 37 40 48 52 48 50 50 40 70 70 67 43 27
266 288 290 289 302 340 349 327 345 337 342 337 341 348 344 338 337 346 345 337 347 345 343 341 343 342 343 343 342 344 346 350 356 358 1 2 2 2 6 10 12 9 15 12 8 12 14 23 24 30 39 45 44 47 36 2 25 26 28 39 32 26 45 54 57 54 40 57 57 52 65 64 46 28
223 259 295 305 307 323 335 336 349 346 337 335 336 342 341 333 332 339 343 355 349 345 344 346 342 345 344 345 347 347 348 352 354 2 2 3 5 7 9 9 8 12 10 11 16 18 17 24 31 28 34 32 48 31 36 24 33 24 24 28 42 35 31 65 60 66 59 51 64 61 65 61 49 51
232 277 312 286 305 323 350 324 354 341 328 327 331 334 336 336 340 344 351 349 346 346 342 345 347 343 345 347 348 347 350 352 356 0 2 4 8 9 8 10 12 10 11 16 17 20 19 25 25 25 26 23 34 37 30 41 42 31 32 33 34 45 35 53 71 66 70 73 75 75 73 77 71 62
259 261 264 255 297 317 329 326 349 334 332 317 307 315 338 341 342 348 350 348 346 345 344 343 343 345 347 349 349 348 350 355 355 356 359 2 5 9 12 10 15 12 18 19 20 18 22 25 22 18 16 17 231 281 74 72 71 49 42 35 38 46 38 40 46 58 59 55 81 80 74 64 66 46
270 306 283 233 253 308 308 312 320 337 328 319 317 318 338 336 353 343 347 347 348 347 347 343 345 346 346 346 350 351 351 353 354 357 357 358 3 8 10 10 18 16 22 24 22 22 23 17 10 9 18 16 11 292 64 48 46 37 40 37 32 42 48 50 49 43 46 39 69 74 76 75 83 74
247 234 253 231 209 279 182 317 320 335 318 317 319 315 329 344 338 344 357 349 354 351 347 346 343 345 344 347 349 351 352 353 354 356 357 357 358 2 9 15 19 15 23 26 23 23 16 16 14 20 19 25 29 44 50 47 49 42 40 38 38 41 46 49 51 53 53 36 52 80 85 85 82 70
239 214 233 242 221 221 185 252 299 303 298 311 321 317 341 343 347 356 357 355 350 355 350 342 342 343 342 343 347 352 354 351 355 354 357 358 357 360 5 9 16 19 24 25 23 22 21 21 23 27 29 33 32 43 49 45 44 45 41 38 36 38 44 49 53 52 50 57 62 65 55 61 125 104
229 216 227 219 199 219 229 240 285 288 284 300 307 318 337 292 346 328 345 353 349 350 343 345 341 346 342 338 343 350 356 352 352 356 356 355 354 353 356 1 6 18 20 26 30 25 22 26 27 28 38 36 32 41 44 46 47 43 45 44 38 40 42 42 51 53 50 45 53 60 63 65 64 73
219 205 213 213 207 209 219 242 260 281 296 304 323 314 323 266 261 314 338 353 344 343 356 350 343 342 341 340 351 353 345 348 352 351 355 356 356 351 351 3 9 10 17 11 31 31 27 28 25 29 41 39 36 45 47 50 50 51 48 49 49 47 43 44 57 58 57 53 44 63 70 72 78 84